www.pogodaiklimat.ru

Погода и климат >> Архив погоды >> Австралия >> Северная территория >> Галивинку


ПОГОДА в Галивинку

  • Прогноз погоды в Галивинку
  • Монитор погоды в Галивинку

АРХИВ ПОГОДЫ в Галивинку

Время (UTC), дата Ветер
(напр.,м/с)
 
Видим.   Явления Облачность Т
(С)
Тd
(С)
f
(%)
Тe
(С)
Тes
(С)
Комфортность P
(гПа)
Po
(гПа)
Тmin
(С)
Tmax
(С)
R
(мм)
R24
(мм)
S
(см)
20 9.09 Ю 2 н/о н/о +17.4 +15.7 90 +18 +18 1014.5 1013.5
23 9.09 ЮВ 4 н/о н/о +23.8 +14.8 57 +27 +27 жарко 1016.2 1015.2
02 10.09 В 7 н/о н/о +28.9 +10.1 31 +29 +29 жарко 1015.3 1014.3 +16.8
05 10.09 В 6 н/о н/о +30.1 +9.6 28 +30 +30 жарко 1013.0 1012.0
08 10.09 В 5 н/о н/о +27.4 +11.8 38 +29 +29 жарко 1013.5 1012.5
11 10.09 ЮВ 6 н/о н/о +24.2 +14.6 55 +27 +27 жарко 1016.2 1015.2
14 10.09 ЮВ 5 н/о н/о +22.0 +17.4 75 +26 +26 душно 1016.8 1015.8 +30.9
17 10.09 ЮВ 3 н/о н/о +20.4 +18.2 87 +24 +24 комфорт 1016.0 1015.0
20 10.09 ЮВ 4 н/о н/о +20.2 +17.8 86 +24 +24 комфорт 1016.0 1015.0
23 10.09 ЮВ 4 н/о н/о +23.3 +15.6 62 +28 +28 душно 1017.9 1016.9
02 11.09 ЮВ 6 н/о н/о +28.8 +13.1 38 +30 +30 жарко 1017.2 1016.2 +19.4
05 11.09 ЮВ 6 н/о н/о +30.5 +12.9 34 +32 +32 жарко 1014.9 1013.9
08 11.09 ЮВ 7 н/о н/о +28.0 +11.5 36 +29 +29 жарко 1015.1 1014.1
11 11.09 ЮВ 6 н/о н/о +24.2 +15.4 58 +27 +27 жарко 1017.3 1016.3
14 11.09 ЮВ 4 н/о н/о +22.3 +16.6 70 +27 +27 душно 1018.4 1017.4 +31.6
17 11.09 Ю 3 н/о н/о +19.6 +16.6 83 +22 +22 комфорт 1017.2 1016.2
20 11.09 ЮВ 4 н/о н/о +18.9 +15.6 81 +20 +20 1016.6 1015.6
23 11.09 ЮВ 6 н/о н/о +23.3 +16.8 67 +28 +28 душно 1018.8 1017.8
02 12.09 В 5 н/о н/о +28.3 +18.4 55 +33 +33 очень
душно
1018.0 1017.0 +18.9
05 12.09 В 7 н/о н/о +29.7 +12.2 34 +31 +31 жарко 1014.9 1013.9
08 12.09 В 6 н/о н/о +27.4 +13.7 43 +29 +29 жарко 1015.3 1014.3
11 12.09 ЮВ 3 н/о н/о +23.8 +16.3 63 +27 +27 жарко 1017.5 1016.5
14 12.09 ЮВ 4 н/о н/о +22.2 +18.2 78 +27 +27 душно 1017.9 1016.9 +31.3
17 12.09 Ю 4 н/о н/о +19.9 +17.7 87 +23 +23 комфорт 1016.3 1015.3
20 12.09 Ю 3 н/о н/о +18.8 +17.5 92 +20 +20 1016.6 1015.6
23 12.09 ЮВ 4 н/о н/о +22.7 +17.4 72 +28 +28 душно 1018.4 1017.4
02 13.09 В 7 н/о н/о +28.7 +14.5 42 +31 +31 жарко 1017.2 1016.2 +18.7
05 13.09 В 6 н/о н/о +29.9 +14.0 38 +32 +32 жарко 1014.2 1013.2
08 13.09 В 6 н/о н/о +28.4 +13.1 39 +30 +30 жарко 1014.2 1013.2
11 13.09 В 5 н/о н/о +24.7 +17.4 64 +29 +29 душно 1017.0 1016.0
14 13.09 ЮВ 3 н/о н/о +22.5 +18.7 79 +28 +28 душно 1017.8 1016.8 +31.2
17 13.09 ЮВ 3 н/о н/о +20.9 +18.8 88 +26 +26 душно 1016.0 1015.0
20 13.09 ЮВ 4 н/о н/о +19.5 +18.2 92 +22 +22 комфорт 1016.0 1015.0
23 13.09 ЮВ 4 н/о н/о +24.0 +17.5 67 +28 +28 душно 1017.4 1016.4
02 14.09 В 6 н/о н/о +28.7 +18.2 53 +33 +33 очень
душно
1016.9 1015.9 +19.3
05 14.09 В 6 н/о н/о +30.0 +15.7 42 +33 +33 душно 1013.8 1012.8
08 14.09 В 6 н/о н/о +28.3 +11.4 35 +29 +29 жарко 1013.8 1012.8
11 14.09 В 4 н/о н/о +24.5 +12.5 47 +26 +26 жарко 1016.3 1015.3
14 14.09 ЮВ 3 н/о н/о +21.9 +15.3 66 +25 +25 комфорт 1016.7 1015.7 +31.1
17 14.09 ЮВ 3 н/о н/о +17.8 +15.2 85 +18 +18 1015.3 1014.3
20 14.09 ЮВ 3 н/о н/о +18.9 +16.5 86 +20 +20 1015.4 1014.4
23 14.09 ЮВ 4 н/о н/о +24.4 +17.9 67 +29 +29 душно 1016.8 1015.8
02 15.09 В 6 н/о н/о +28.2 +18.0 54 +33 +33 очень
душно
1015.9 1014.9 +17.5
05 15.09 В 5 н/о н/о +30.3 +15.2 40 +33 +33 душно 1013.3 1012.3
08 15.09 В 4 н/о н/о +27.8 +17.3 53 +32 +32 душно 1013.7 1012.7
11 15.09 В 3 н/о н/о +24.2 +15.7 59 +27 +27 жарко 1015.4 1014.4
14 15.09 В 3 н/о н/о +22.2 +18.4 79 +27 +27 душно 1015.8 1014.8 +30.9
17 15.09 ЮВ 2 н/о н/о +20.4 +18.3 88 +25 +25 комфорт 1014.8 1013.8
20 15.09 ЮВ 3 н/о н/о +19.4 +17.9 91 +22 +22 комфорт 1015.5 1014.5
23 15.09 ЮВ 4 н/о н/о +23.8 +17.5 68 +28 +28 душно 1016.9 1015.9
02 16.09 В 6 н/о н/о +26.7 +18.6 61 +32 +32 очень
душно
1016.3 1015.3 +19.0
05 16.09 В 6 н/о н/о +28.9 +18.1 52 +34 +34 очень
душно
1013.5 1012.5
08 16.09 СВ 5 н/о н/о +27.1 +20.2 66 +33 +33 очень
душно
1013.3 1012.3
11 16.09 В 3 н/о н/о +23.1 +19.3 79 +29 +29 очень
душно
1015.1 1014.1
14 16.09 ЮВ 3 н/о н/о +21.8 +19.2 85 +27 +27 душно 1015.3 1014.3 +30.1
17 16.09 ЮВ 2 н/о н/о +20.8 +19.5 92 +26 +26 душно 1014.3 1013.3

 

Местоположение метеостанции Галивинку (Северная территория, Австралия): широта -12.00 долгота 135.57 высота над уровнем моря 9 м.

В архиве по умолчанию представлена погода в Галивинку за последнюю неделю. Архивные данные за месяц целиком и за предыдущие месяцы, начиная с января 2011 года, Вы можете получить, выбрав интересующий диапазон дат из раскрывающегося списка и нажав кнопку "Ввод!".


*Определитесь, кто Вы:
робот инопланетянин человек

Внимание! Время в таблицах - всемирное. Для получения местного времени необходимо прибавить поправку, которая равна 9.5 ч.

Смотрите также архив погоды в соседних городах и на ближайших метеорологических станциях:

Погода в Милинджимби (Северная территория, Австралия) (74 км)
Погода в Аэропорту Гоув (Северная территория, Австралия) (138 км)
Погода в Манингриде (Северная территория, Австралия) (146 км)
Погода на Мысе Уэссел (Северная территория, Австралия) (169 км)
Погода в Булман Уимол (Северная территория, Австралия) (229 км)
Погода на Острове Северо-восточный (Северная территория, Австралия) (235 км)
Погода в Аэропорту Грут-Айленд (Северная территория, Австралия) (241 км)
Погода в Уорруви (Северная территория, Австралия) (242 км)
Погода в Джаберу (Северная территория, Австралия) (300 км)
Погода на Острове Маклер (Северная территория, Австралия) (301 км)

Пояснения к столбцам:

Ветер - указаны скорость ветра в м/с - средняя за 10 мин, порывы в срок и между сроками (в фигурных скобках) и направление, откуда дует ветер: С - северный, СВ - северо-восточный, В - восточный, ЮВ - юго-восточный, Ю - южный, ЮЗ - юго-западный, З - западный, СЗ - северо-западный.
Видимость - горизонтальная дальность видимости в метрах или километрах. При видимости от 1 до 10 км при отсутствии осадков обычно наблюдается дымка, при ухудшении видимости до 1 км и менее - туман. В сухую погоду видимость может ухудшаться дымом, пылью или мглою.
Явления - указаны атмосферные явления, наблюдавшиеся в срок или в последний час перед сроком; фигурными скобками обозначены явления, наблюдавшиеся между сроками (за 1-3 часа до срока); квадратными скобками обозначены град или гололедные отложения с указанием их диаметра в мм.
Облачность - указаны через наклонную черту общая и нижняя облачность в баллах и высота нижней границы облаков в метрах; квадратными скобками обозначены формы облаков: Ci - перистые, Cs - перисто-слоистые, Cc - перисто-кучевые, Ac - высококучевые, As - высокослоистые, Sc - слоисто-кучевые, Ns - слоисто-дождевые, Cu - кучевые, Cb - кучево-дождевые. Подробнее классификацию облаков см. в Атласе облаков (PDF).
T - Температура воздуха - температура, измеренная на высоте 2 м над землей.
Td - Температура точки росы - температура, при понижении до которой содержащийся в воздухе водяной пар достигнет насыщения.
f - Относительная влажность воздуха - влажноcть воздуха, измеренная на высоте 2 м над землей.
Te - Эффективная температура - температура, которую ощущает одетый по сезону человек в тени. Характеристика душности погоды. При расчете учитывается влияние влажности воздуха и скорости ветра на теплоощущения человека.
Tes - Эффективная температура на солнце - температура, которую ощущает человек, с поправкой на солнечный нагрев. Характеристика знойности погоды. Зависит от высоты солнца над горизонтом, облачности и скорости ветра. Ночью, в пасмурную погоду, а также при ветре 12 м/с и более поправка равна нулю.
P - Атмосферное давление - приведенное к уровню моря атмосферное давление.
Po - Атмосферное давление - измеренное на уровне метеостанции атмосферное давление.
Tmin - Минимальная температура - минимум температуры воздуха на высоте 2 м над землей.
Tmax - Максимальная температура - максимум температуры воздуха на высоте 2 м над землей.
R - Количество осадков - Количество выпавших осадков за период времени, мм. При наведении курсора мыши на число - период времени, за который выпало указанное количество осадков.
R24 - Количество осадков - Количество выпавших осадков за 24 часа, мм.
S - Снежный покров - Высота снежного покрова, см. При наведении курсора мыши на число - состояние снежного покрова и степень покрытия местности в баллах.